CEB866 RPLL-RPME

Flight info

Callsign CEB866
Flight time 1h 10m
Altitude 35000
Route IPATA2V IPATA B462 TAC W9 BANWA DCT ROLEX TACL2B
Aircraft A20N/M-SDE2E3FGHIJ1RWXY/LB1

Departure

Time 2026-04-23 12:38
Airport Ninoy Aquino International Airport (RPLL)

Arrival

Time 2026-04-23 13:48
Airport Bancasi Airport (RPME)
Time Latitude Longitude Altitude Speed Heading
2026-04-23 12:02 14.52333 121.00790 82 ft 0 kts 46°
2026-04-23 12:28 14.52331 121.00789 82 ft 2 kts 46°
2026-04-23 12:29 14.52321 121.00777 82 ft 2 kts 45°
2026-04-23 12:29 14.52310 121.00767 82 ft 2 kts 46°
2026-04-23 12:29 14.52301 121.00757 82 ft 0 kts 46°
2026-04-23 12:29 14.52293 121.00748 82 ft 2 kts 21°
2026-04-23 12:30 14.52278 121.00747 82 ft 2 kts 348°
2026-04-23 12:30 14.52265 121.00752 82 ft 0 kts 319°
2026-04-23 12:30 14.52264 121.00753 82 ft 1 kts 318°
2026-04-23 12:30 14.52285 121.00732 82 ft 3 kts 315°
2026-04-23 12:31 14.52292 121.00726 82 ft 0 kts 315°
2026-04-23 12:35 14.52297 121.00720 82 ft 3 kts 315°
2026-04-23 12:35 14.52324 121.00693 82 ft 7 kts 315°
2026-04-23 12:35 14.52371 121.00644 82 ft 11 kts 315°
2026-04-23 12:36 14.52434 121.00580 82 ft 13 kts 315°
2026-04-23 12:36 14.52490 121.00519 82 ft 9 kts 297°
2026-04-23 12:36 14.52459 121.00457 82 ft 11 kts 226°
2026-04-23 12:36 14.52395 121.00402 82 ft 12 kts 194°
2026-04-23 12:37 14.52327 121.00442 82 ft 11 kts 135°
2026-04-23 12:37 14.52167 121.00607 82 ft 68 kts 134°
2026-04-23 12:37 14.51653 121.01139 82 ft 139 kts 135°
2026-04-23 12:37 14.50887 121.01920 492 ft 157 kts 135°
2026-04-23 12:38 14.50135 121.02695 1230 ft 155 kts 135°
2026-04-23 12:38 14.49382 121.03467 1946 ft 155 kts 136°
2026-04-23 12:38 14.48625 121.04238 2516 ft 155 kts 136°
2026-04-23 12:38 14.47864 121.05014 3027 ft 156 kts 136°
2026-04-23 12:39 14.47082 121.05814 3470 ft 163 kts 134°
2026-04-23 12:39 14.46302 121.06734 3781 ft 180 kts 130°
2026-04-23 12:39 14.45471 121.07790 4138 ft 197 kts 129°
2026-04-23 12:39 14.44573 121.08938 4529 ft 214 kts 129°
2026-04-23 12:40 14.43585 121.10192 4828 ft 238 kts 129°
2026-04-23 12:40 14.42492 121.11571 5272 ft 256 kts 129°
2026-04-23 12:40 14.41339 121.13023 5758 ft 272 kts 128°
2026-04-23 12:40 14.40118 121.14557 6500 ft 278 kts 128°
2026-04-23 12:41 14.38901 121.16084 7286 ft 280 kts 128°
2026-04-23 12:41 14.37661 121.17638 8045 ft 284 kts 128°
2026-04-23 12:41 14.36395 121.19225 8760 ft 289 kts 128°
2026-04-23 12:41 14.35115 121.20829 9449 ft 292 kts 128°
2026-04-23 12:42 14.33823 121.22448 10143 ft 295 kts 129°
2026-04-23 12:42 14.32493 121.24113 10625 ft 306 kts 129°
2026-04-23 12:42 14.31102 121.25853 10924 ft 323 kts 129°
2026-04-23 12:42 14.29646 121.27673 11200 ft 339 kts 129°
2026-04-23 12:43 14.28115 121.29585 11614 ft 349 kts 129°
2026-04-23 12:43 14.26561 121.31526 12219 ft 352 kts 129°
2026-04-23 12:43 14.25000 121.33477 12816 ft 355 kts 129°
2026-04-23 12:43 14.23417 121.35455 13393 ft 359 kts 129°
2026-04-23 12:44 14.21837 121.37428 13938 ft 363 kts 129°
2026-04-23 12:44 14.20213 121.39457 14472 ft 366 kts 129°
2026-04-23 12:44 14.18586 121.41487 14984 ft 370 kts 129°
2026-04-23 12:44 14.16945 121.43535 15499 ft 374 kts 129°
2026-04-23 12:45 14.15286 121.45605 15991 ft 377 kts 129°
2026-04-23 12:45 14.13608 121.47699 16488 ft 380 kts 129°
2026-04-23 12:45 14.11910 121.49815 16965 ft 383 kts 129°
2026-04-23 12:45 14.10206 121.51939 17428 ft 386 kts 129°
2026-04-23 12:46 14.08482 121.54089 17888 ft 390 kts 129°
2026-04-23 12:46 14.06753 121.56244 18331 ft 393 kts 129°
2026-04-23 12:46 14.05013 121.58411 18774 ft 396 kts 129°
2026-04-23 12:46 14.03253 121.60603 19208 ft 399 kts 129°
2026-04-23 12:47 14.01489 121.62800 19642 ft 401 kts 129°
2026-04-23 12:47 13.99684 121.65045 20070 ft 404 kts 130°
2026-04-23 12:47 13.97901 121.67265 20499 ft 407 kts 130°
2026-04-23 12:47 13.96078 121.69534 20919 ft 409 kts 130°
2026-04-23 12:48 13.94273 121.71780 21333 ft 412 kts 130°
2026-04-23 12:48 13.92435 121.74066 21748 ft 415 kts 130°
2026-04-23 12:48 13.90606 121.76341 22156 ft 417 kts 130°
2026-04-23 12:48 13.88731 121.78670 22558 ft 420 kts 130°
2026-04-23 12:49 13.86852 121.81003 22975 ft 423 kts 130°
2026-04-23 12:49 13.84969 121.83325 23392 ft 425 kts 130°
2026-04-23 12:49 13.83075 121.85645 23808 ft 427 kts 130°
2026-04-23 12:49 13.81159 121.87991 24232 ft 429 kts 130°
2026-04-23 12:50 13.79235 121.90346 24640 ft 432 kts 130°
2026-04-23 12:50 13.77309 121.92705 25042 ft 434 kts 130°
2026-04-23 12:50 13.75365 121.95086 25455 ft 436 kts 130°
2026-04-23 12:50 13.73407 121.97482 25854 ft 438 kts 130°
2026-04-23 12:51 13.71452 121.99874 26244 ft 440 kts 130°
2026-04-23 12:51 13.69462 122.02309 26634 ft 441 kts 130°
2026-04-23 12:51 13.67499 122.04710 27006 ft 443 kts 129°
2026-04-23 12:51 13.65516 122.07137 27358 ft 445 kts 129°
2026-04-23 12:52 13.63497 122.09607 27699 ft 448 kts 129°
2026-04-23 12:52 13.61510 122.12037 28012 ft 450 kts 129°
2026-04-23 12:52 13.59489 122.14507 28354 ft 452 kts 129°
2026-04-23 12:52 13.57452 122.16997 28804 ft 450 kts 130°
2026-04-23 12:53 13.55454 122.19442 29253 ft 448 kts 130°
2026-04-23 12:53 13.53471 122.21866 29663 ft 447 kts 130°
2026-04-23 12:53 13.51454 122.24328 30050 ft 446 kts 130°
2026-04-23 12:53 13.49457 122.26766 30434 ft 445 kts 130°
2026-04-23 12:54 13.47467 122.29194 30805 ft 444 kts 130°
2026-04-23 12:54 13.45477 122.31622 31161 ft 444 kts 130°
2026-04-23 12:54 13.43486 122.34047 31504 ft 443 kts 130°
2026-04-23 12:54 13.41517 122.36446 31835 ft 443 kts 130°
2026-04-23 12:55 13.39516 122.38886 32158 ft 443 kts 130°
2026-04-23 12:55 13.37537 122.41296 32457 ft 443 kts 130°
2026-04-23 12:55 13.35556 122.43709 32772 ft 443 kts 130°
2026-04-23 12:55 13.33564 122.46135 33126 ft 443 kts 130°
2026-04-23 12:56 13.31586 122.48543 33450 ft 443 kts 130°
2026-04-23 12:56 13.29577 122.50987 33749 ft 444 kts 130°
2026-04-23 12:56 13.27601 122.53392 34017 ft 445 kts 130°
2026-04-23 12:56 13.25607 122.55818 34279 ft 446 kts 130°
2026-04-23 12:57 13.23604 122.58253 34541 ft 447 kts 130°
2026-04-23 12:57 13.21594 122.60697 34795 ft 447 kts 130°
2026-04-23 12:57 13.17559 122.65600 34881 ft 449 kts 130°
2026-04-23 12:58 13.13545 122.70476 34880 ft 449 kts 130°
2026-04-23 12:58 13.09512 122.75372 34883 ft 449 kts 130°
2026-04-23 12:59 13.05476 122.80268 34889 ft 450 kts 130°
2026-04-23 12:59 13.01419 122.85189 34890 ft 450 kts 130°
2026-04-23 13:00 12.97387 122.90075 34892 ft 450 kts 130°
2026-04-23 13:00 12.93348 122.94967 34893 ft 450 kts 130°
2026-04-23 13:01 12.89295 122.99873 34893 ft 450 kts 130°
2026-04-23 13:01 12.85236 123.04784 34896 ft 450 kts 130°
2026-04-23 13:02 12.81206 123.09658 34892 ft 450 kts 130°
2026-04-23 13:02 12.77153 123.14556 34896 ft 451 kts 130°
2026-04-23 13:03 12.73090 123.19463 34897 ft 450 kts 130°
2026-04-23 13:03 12.69047 123.24345 34898 ft 451 kts 130°
2026-04-23 13:04 12.64982 123.29251 34902 ft 451 kts 131°
2026-04-23 13:04 12.60922 123.34147 34901 ft 451 kts 131°
2026-04-23 13:05 12.56881 123.39017 34900 ft 451 kts 131°
2026-04-23 13:05 12.52815 123.43916 34902 ft 451 kts 131°
2026-04-23 13:06 12.46721 123.51253 34900 ft 452 kts 131°
2026-04-23 13:07 12.42647 123.56157 34901 ft 451 kts 131°
2026-04-23 13:07 12.38587 123.61039 34903 ft 452 kts 131°
2026-04-23 13:08 12.34537 123.65958 34902 ft 451 kts 130°
2026-04-23 13:08 12.30523 123.70928 34901 ft 452 kts 130°
2026-04-23 13:09 12.26529 123.75867 34900 ft 452 kts 130°
2026-04-23 13:09 12.22500 123.80842 34900 ft 452 kts 130°
2026-04-23 13:10 12.18506 123.85770 34899 ft 453 kts 130°
2026-04-23 13:10 12.14471 123.90745 34899 ft 453 kts 130°
2026-04-23 13:11 12.10469 123.95676 34901 ft 453 kts 130°
2026-04-23 13:11 12.06440 124.00639 34898 ft 453 kts 130°
2026-04-23 13:12 12.02417 124.05590 34897 ft 453 kts 130°
2026-04-23 13:12 11.98382 124.10555 34900 ft 453 kts 130°
2026-04-23 13:13 11.94359 124.15502 34900 ft 453 kts 130°
2026-04-23 13:13 11.90333 124.20451 34903 ft 453 kts 130°
2026-04-23 13:14 11.86278 124.25433 34910 ft 453 kts 130°
2026-04-23 13:14 11.82259 124.30365 34915 ft 453 kts 130°
2026-04-23 13:15 11.78214 124.35328 34918 ft 453 kts 130°
2026-04-23 13:15 11.74212 124.40235 34919 ft 453 kts 130°
2026-04-23 13:16 11.70163 124.45198 34921 ft 454 kts 130°
2026-04-23 13:16 11.66133 124.50134 34928 ft 453 kts 130°
2026-04-23 13:17 11.62098 124.55078 34928 ft 454 kts 130°
2026-04-23 13:17 11.58054 124.60029 34927 ft 453 kts 130°
2026-04-23 13:18 11.54032 124.64952 34929 ft 453 kts 130°
2026-04-23 13:18 11.49978 124.69907 34923 ft 453 kts 130°
2026-04-23 13:19 11.45950 124.74831 34921 ft 454 kts 130°
2026-04-23 13:19 11.41904 124.79771 34921 ft 454 kts 130°
2026-04-23 13:20 11.37833 124.84742 34921 ft 455 kts 130°
2026-04-23 13:20 11.33789 124.89679 34922 ft 455 kts 130°
2026-04-23 13:21 11.29737 124.94621 34920 ft 454 kts 130°
2026-04-23 13:21 11.25282 124.99168 34922 ft 452 kts 143°
2026-04-23 13:22 11.19948 125.02522 34919 ft 450 kts 156°
2026-04-23 13:22 11.13991 125.04524 34923 ft 448 kts 169°
2026-04-23 13:23 11.07881 125.05762 34919 ft 448 kts 171°
2026-04-23 13:23 11.01751 125.06976 34917 ft 449 kts 170°
2026-04-23 13:24 10.95606 125.08217 34916 ft 449 kts 170°
2026-04-23 13:24 10.89482 125.09460 34914 ft 448 kts 170°
2026-04-23 13:25 10.83321 125.10739 34724 ft 449 kts 168°
2026-04-23 13:25 10.80290 125.11554 34369 ft 447 kts 164°
2026-04-23 13:25 10.77348 125.12487 33956 ft 443 kts 163°
2026-04-23 13:25 10.74420 125.13438 33481 ft 440 kts 163°
2026-04-23 13:26 10.71485 125.14395 32909 ft 440 kts 163°
2026-04-23 13:26 10.68586 125.15337 32327 ft 440 kts 163°
2026-04-23 13:26 10.65634 125.16295 31714 ft 441 kts 163°
2026-04-23 13:26 10.62716 125.17239 31069 ft 442 kts 163°
2026-04-23 13:27 10.59803 125.18182 30415 ft 442 kts 163°
2026-04-23 13:27 10.56856 125.19134 29744 ft 443 kts 163°
2026-04-23 13:27 10.53905 125.20088 29062 ft 444 kts 162°
2026-04-23 13:27 10.50980 125.21034 28366 ft 445 kts 162°
2026-04-23 13:28 10.48015 125.21991 27683 ft 446 kts 162°
2026-04-23 13:28 10.45042 125.22948 27162 ft 443 kts 161°
2026-04-23 13:28 10.42110 125.23896 26651 ft 440 kts 161°
2026-04-23 13:28 10.39212 125.24834 26156 ft 436 kts 161°
2026-04-23 13:29 10.36318 125.25771 25664 ft 432 kts 161°
2026-04-23 13:29 10.33484 125.26687 25177 ft 429 kts 161°
2026-04-23 13:29 10.30639 125.27605 24683 ft 426 kts 161°
2026-04-23 13:29 10.27828 125.28513 24189 ft 423 kts 161°
2026-04-23 13:30 10.25001 125.29425 23689 ft 420 kts 160°
2026-04-23 13:30 10.22220 125.30322 23200 ft 418 kts 160°
2026-04-23 13:30 10.19474 125.31209 22719 ft 416 kts 160°
2026-04-23 13:30 10.16723 125.32096 22231 ft 413 kts 160°
2026-04-23 13:31 10.13975 125.32983 21753 ft 411 kts 160°
2026-04-23 13:31 10.11236 125.33868 21268 ft 409 kts 160°
2026-04-23 13:31 10.08542 125.34737 20793 ft 407 kts 160°
2026-04-23 13:31 10.05850 125.35607 20311 ft 404 kts 160°
2026-04-23 13:32 10.03174 125.36470 19824 ft 402 kts 160°
2026-04-23 13:32 10.00498 125.37333 19335 ft 400 kts 161°
2026-04-23 13:32 9.97849 125.38186 18843 ft 397 kts 160°
2026-04-23 13:32 9.95245 125.39024 18354 ft 395 kts 161°
2026-04-23 13:33 9.92623 125.39868 17863 ft 392 kts 161°
2026-04-23 13:33 9.90019 125.40706 17372 ft 390 kts 161°
2026-04-23 13:33 9.87405 125.41549 16884 ft 387 kts 161°
2026-04-23 13:33 9.84863 125.42367 16399 ft 385 kts 161°
2026-04-23 13:34 9.82297 125.43192 15912 ft 382 kts 161°
2026-04-23 13:34 9.79772 125.44006 15424 ft 380 kts 161°
2026-04-23 13:34 9.77234 125.44822 14931 ft 378 kts 161°
2026-04-23 13:34 9.74730 125.45628 14444 ft 376 kts 161°
2026-04-23 13:35 9.72253 125.46424 13961 ft 374 kts 161°
2026-04-23 13:35 9.69710 125.46994 13460 ft 373 kts 175°
2026-04-23 13:35 9.67116 125.46830 12979 ft 371 kts 191°
2026-04-23 13:35 9.64639 125.46143 12507 ft 369 kts 196°
2026-04-23 13:36 9.62185 125.45379 12029 ft 367 kts 196°
2026-04-23 13:36 9.59769 125.44622 11561 ft 365 kts 196°
2026-04-23 13:36 9.57329 125.43864 11087 ft 362 kts 196°
2026-04-23 13:36 9.54914 125.43122 10623 ft 359 kts 196°
2026-04-23 13:37 9.52570 125.42404 10414 ft 348 kts 195°
2026-04-23 13:37 9.50282 125.41707 10272 ft 335 kts 195°
2026-04-23 13:37 9.48072 125.41035 10137 ft 323 kts 195°
2026-04-23 13:37 9.45955 125.40392 10008 ft 312 kts 195°
2026-04-23 13:38 9.43874 125.39761 9698 ft 307 kts 195°
2026-04-23 13:38 9.41832 125.39141 9409 ft 302 kts 195°
2026-04-23 13:38 9.39823 125.38532 9032 ft 301 kts 195°
2026-04-23 13:38 9.37814 125.37924 8599 ft 302 kts 195°
2026-04-23 13:39 9.35820 125.37320 8285 ft 297 kts 195°
2026-04-23 13:39 9.33860 125.36726 8077 ft 290 kts 195°
2026-04-23 13:39 9.31924 125.36139 7731 ft 288 kts 195°
2026-04-23 13:39 9.29993 125.35551 7359 ft 286 kts 194°
2026-04-23 13:40 9.28107 125.34976 7004 ft 285 kts 194°
2026-04-23 13:40 9.26205 125.34398 6643 ft 283 kts 194°
2026-04-23 13:40 9.24327 125.33826 6289 ft 281 kts 194°
2026-04-23 13:40 9.22451 125.33256 5935 ft 280 kts 194°
2026-04-23 13:41 9.20565 125.32681 5579 ft 278 kts 194°
2026-04-23 13:41 9.18706 125.32116 5209 ft 278 kts 194°
2026-04-23 13:41 9.16858 125.31554 4862 ft 277 kts 194°
2026-04-23 13:41 9.15030 125.30997 4535 ft 275 kts 194°
2026-04-23 13:42 9.13191 125.30437 4207 ft 273 kts 194°
2026-04-23 13:42 9.11378 125.29888 3905 ft 269 kts 193°
2026-04-23 13:42 9.09602 125.29353 3686 ft 263 kts 193°
2026-04-23 13:42 9.07867 125.28832 3421 ft 259 kts 194°
2026-04-23 13:43 9.06117 125.28429 3199 ft 249 kts 176°
2026-04-23 13:43 9.04561 125.28918 3079 ft 229 kts 138°
2026-04-23 13:43 9.03668 125.30164 3042 ft 212 kts 113°
2026-04-23 13:43 9.03101 125.31486 2997 ft 199 kts 113°
2026-04-23 13:44 9.02537 125.32736 2951 ft 190 kts 114°
2026-04-23 13:44 9.01987 125.33907 2828 ft 179 kts 115°
2026-04-23 13:44 9.01466 125.34994 2668 ft 162 kts 115°
2026-04-23 13:44 9.00997 125.35960 2516 ft 148 kts 115°
2026-04-23 13:45 9.00546 125.36884 2303 ft 143 kts 115°
2026-04-23 13:45 9.00111 125.37774 2118 ft 142 kts 115°
2026-04-23 13:45 8.99671 125.38670 1931 ft 142 kts 114°
2026-04-23 13:45 8.99233 125.39565 1740 ft 141 kts 114°
2026-04-23 13:46 8.98794 125.40460 1553 ft 141 kts 114°
2026-04-23 13:46 8.98362 125.41343 1364 ft 140 kts 115°
2026-04-23 13:46 8.97931 125.42223 1158 ft 140 kts 114°
2026-04-23 13:46 8.97504 125.43108 919 ft 139 kts 115°
2026-04-23 13:47 8.97071 125.43980 685 ft 138 kts 115°
2026-04-23 13:47 8.96635 125.44852 481 ft 138 kts 115°
2026-04-23 13:47 8.96208 125.45730 286 ft 139 kts 115°
2026-04-23 13:47 8.95781 125.46603 126 ft 140 kts 115°
2026-04-23 13:48 8.95346 125.47481 48 ft 131 kts 114°
2026-04-23 13:48 8.95021 125.48150 47 ft 66 kts 119°
2026-04-23 13:48 8.94895 125.48405 57 ft 32 kts 116°
2026-04-23 13:48 8.94827 125.48559 62 ft 15 kts 104°
2026-04-23 13:49 8.94806 125.48642 61 ft 8 kts 116°
2026-04-23 13:49 8.94777 125.48654 61 ft 4 kts 237°
2026-04-23 13:49 8.94789 125.48619 62 ft 6 kts 296°
2026-04-23 13:49 8.94818 125.48562 62 ft 12 kts 297°
2026-04-23 13:50 8.94868 125.48460 59 ft 18 kts 295°
2026-04-23 13:50 8.94917 125.48356 55 ft 12 kts 289°
2026-04-23 13:50 8.94901 125.48277 52 ft 10 kts 248°
2026-04-23 13:50 8.94896 125.48219 51 ft 7 kts 279°
2026-04-23 13:51 8.94880 125.48177 50 ft 3 kts 236°
2026-04-23 13:51 8.94870 125.48163 50 ft 1 kts 235°
2026-04-23 13:51 8.94868 125.48159 50 ft 0 kts 236°